Location: STAR School
(35.3054°N, 111.2976°W)
Time: 15:56:14
(UTC-07:00)

Transit 2A - All Passes

Search period start: 21 May 2019 00:00
Search period end: 31 May 2019 00:00
Orbit: 592 x 967 km, 66.7° (Epoch: 21 May)

Date Brightness Start Highest point End Pass type
(mag) Time Alt. Az. Time Alt. Az. Time Alt. Az.
21 May - 06:18:00 10° ESE 06:19:48 11° E 06:21:37 10° E daylight
21 May - 07:55:56 10° SSW 08:02:04 87° ESE 08:08:29 10° NNE daylight
21 May - 09:42:10 10° W 09:46:10 17° NW 09:50:14 10° N daylight
21 May - 16:47:18 10° NNW 16:52:45 38° NE 16:57:42 10° SE daylight
21 May - 18:31:04 10° NW 18:35:42 26° WSW 18:39:56 10° SSW daylight
22 May - 07:22:01 10° S 07:28:00 61° ESE 07:34:18 10° NE daylight
22 May - 09:06:51 10° WSW 09:11:44 23° NW 09:16:44 10° N daylight
22 May - 16:13:31 10° N 16:18:26 27° NE 16:22:59 10° ESE daylight
22 May - 17:56:30 10° NW 18:01:48 39° WSW 18:06:35 10° S daylight
23 May - 06:48:20 10° S 06:54:01 42° ESE 06:59:58 10° NE daylight
23 May - 08:31:54 10° WSW 08:37:23 32° NW 08:43:02 10° N daylight
23 May - 15:39:53 10° N 15:44:03 19° NE 15:47:57 10° E daylight
23 May - 17:22:09 10° NW 17:27:50 61° WSW 17:32:54 10° SSE daylight
24 May - 06:14:57 10° SSE 06:20:05 29° ESE 06:25:25 10° NE daylight
24 May - 07:57:13 10° SW 08:03:06 44° WNW 08:09:12 10° NNE daylight
24 May - 15:06:36 10° NNE 15:09:35 14° NE 15:12:27 10° ENE daylight
24 May - 16:47:57 10° NNW 16:53:47 89° E 16:58:57 10° SSE daylight
25 May - 05:41:59 10° SSE 05:46:13 20° ESE 05:50:34 10° ENE daylight
25 May - 07:22:46 10° SW 07:28:53 62° WNW 07:35:14 10° NNE daylight
25 May - 09:11:17 10° WNW 09:13:27 12° NW 09:15:37 10° NNW daylight
25 May - 16:13:54 10° NNW 16:19:39 61° ENE 16:24:47 10° SE daylight
25 May - 17:59:03 10° WNW 18:02:06 15° WSW 18:04:59 10° SW daylight
26 May - 05:09:51 10° SE 05:12:24 13° E 05:14:58 10° ENE daylight
26 May - 06:48:34 10° SSW 06:54:44 87° WNW 07:01:11 10° NNE daylight
26 May - 08:35:08 10° W 08:38:55 16° NW 08:42:44 10° N daylight
26 May - 15:39:57 10° NNW 15:45:26 41° NE 15:50:22 10° SE daylight
26 May - 17:23:56 10° NW 17:28:16 23° WSW 17:32:17 10° SSW daylight
27 May - 06:14:35 10° SSW 06:20:40 67° ESE 06:27:01 10° NNE daylight
27 May - 07:59:44 10° W 08:04:28 22° NW 08:09:18 10° N daylight
27 May - 15:06:08 10° N 15:11:08 29° NE 15:15:42 10° ESE daylight
27 May - 16:49:17 10° NW 16:54:24 36° WSW 16:59:01 10° S daylight
28 May - 05:40:51 10° S 05:46:40 46° ESE 05:52:42 10° NE daylight
28 May - 07:24:42 10° WSW 07:30:07 30° NW 07:35:38 10° N daylight
28 May - 14:32:30 10° N 14:36:46 21° NE 14:40:44 10° E daylight
28 May - 16:14:53 10° NW 16:20:26 55° WSW 16:25:24 10° S daylight
29 May - 05:07:24 10° SSE 05:12:43 31° ESE 05:18:13 10° NE daylight
29 May - 06:49:58 10° SW 06:55:48 41° WNW 07:01:49 10° NNE daylight
29 May - 13:59:07 10° N 14:02:18 15° NE 14:05:21 10° ENE daylight
29 May - 15:40:39 10° NNW 15:46:25 84° WSW 15:51:31 10° SSE daylight
30 May - 04:34:19 10° SSE 04:38:49 22° ESE 04:43:28 10° ENE visible
30 May - 06:15:29 10° SW 06:21:35 57° WNW 06:27:54 10° NNE daylight
30 May - 08:04:39 10° NW 08:06:12 11° NW 08:07:46 10° NNW daylight
30 May - 13:26:42 10° NNE 13:27:47 10° NE 13:28:49 10° NE daylight
30 May - 15:06:34 10° NNW 15:12:18 66° ENE 15:17:23 10° SE daylight
30 May - 16:52:10 10° WNW 16:54:39 13° W 16:57:02 10° SW daylight
